EW7948 Weather Reports


Display with metric or nautical units.
time (UTC)temp
F
wind
direction
speed
MPH
gust
MPH
rain 1hr
in
rain 24hr
in
rain mn
in
humidity
%
barometer
mb
20260903161545 78 165 1.0 7.0 0.00 0.00 0.00 20 1006.9
20260903160044 76 216 2.0 7.0 0.00 0.00 0.00 23 1006.9
20260903154536 73 89 0.0 3.0 0.00 0.00 0.00 31 1006.8
20260903153035 71 70 1.0 3.0 0.00 0.00 0.00 31 1006.9
20260903151535 67 70 0.0 1.0 0.00 0.00 0.00 43 1007.0
20260903150058 65 70 0.0 1.0 0.00 0.00 0.00 57 1007.0
20260903144536 62 70 0.0 2.0 0.00 0.00 0.00 55 1007.1
20260903143032 60 70 0.0 1.0 0.00 0.00 0.00 58 1006.7
20260903141536 58 70 0.0 0.0 0.00 0.00 0.00 66 1006.8
20260903140016 56 70 0.0 2.0 0.00 0.00 0.00 70 1006.4
20260903134628 55 70 2.0 4.0 0.00 0.00 0.00 65 1006.3
20260903133029 54 72 2.0 4.0 0.00 0.00 0.00 69 1006.1
20260903131509 54 58 0.0 2.0 0.00 0.00 0.00 71 1006.1
20260903130015 54 58 2.0 4.0 0.00 0.00 0.00 72 1006.0
20260903124602 54 57 0.0 0.0 0.00 0.00 0.00 70 1005.7
20260903123002 54 57 0.0 1.0 0.00 0.00 0.00 72 1005.6
20260903121502 54 57 0.0 1.0 0.00 0.00 0.00 74 1005.6
20260903120001 54 57 0.0 1.0 0.00 0.00 0.00 73 1005.3
20260903114558 54 57 0.0 0.0 0.00 0.00 0.00 73 1005.2
20260903113058 55 57 2.0 4.0 0.00 0.00 0.00 73 1005.1
20260903111553 55 57 1.0 2.0 0.00 0.00 0.00 72 1004.9
20260903110055 56 57 0.0 3.0 0.00 0.00 0.00 71 1004.9
20260903104549 56 57 0.0 1.0 0.00 0.00 0.00 72 1004.7
20260903103046 57 57 0.0 1.0 0.00 0.00 0.00 72 1004.6
20260903101543 57 57 1.0 3.0 0.00 0.00 0.00 64 1004.5
20260903100041 58 57 0.0 2.0 0.00 0.00 0.00 63 1004.4
20260903094547 59 57 0.0 0.0 0.00 0.00 0.00 60 1004.4
20260903093036 59 57 0.0 0.0 0.00 0.00 0.00 59 1004.3
20260903091606 59 57 0.0 0.0 0.00 0.00 0.00 61 1004.1
20260903090048 60 57 0.0 2.0 0.00 0.00 0.00 61 1004.0
20260903084547 61 57 0.0 3.0 0.00 0.00 0.00 52 1003.8
20260903083041 62 57 0.0 0.0 0.00 0.00 0.00 52 1003.8
20260903081540 62 57 0.0 0.0 0.00 0.00 0.00 53 1003.7
20260903080043 63 57 0.0 3.0 0.00 0.00 0.00 50 1003.6
20260903074541 63 57 0.0 0.0 0.00 0.00 0.00 55 1003.4
20260903073031 64 57 0.0 3.0 0.00 0.00 0.00 56 1003.3
20260903071528 65 57 2.0 6.0 0.00 0.00 0.00 46 1003.2
20260903070024 67 33 0.0 0.0 0.00 0.00 0.00 41 1003.0
20260903064521 68 33 0.0 0.0 0.00 0.00 0.00 36 1002.9
20260903063022 69 33 0.0 0.0 0.00 0.00 0.00 38 1003.0
20260903061521 70 33 0.0 4.0 0.00 0.00 0.00 35 1002.9
20260903060013 74 5 3.0 8.0 0.00 0.00 0.00 30 1002.7
20260903054510 74 236 0.0 3.0 0.00 0.00 0.00 27 1002.6
20260903053008 74 198 2.0 6.0 0.00 0.00 0.00 26 1002.6
20260903051508 75 184 4.0 8.0 0.00 0.00 0.00 25 1002.7
20260903050009 75 186 4.0 7.0 0.00 0.00 0.00 26 1002.7
20260903044506 77 171 3.0 6.0 0.00 0.00 0.00 24 1002.7
20260903043012 79 201 3.0 8.0 0.00 0.00 0.00 22 1002.7
20260903041505 80 215 4.0 10.0 0.00 0.00 0.00 19 1002.7
20260903040008 81 223 6.0 11.0 0.00 0.00 0.00 18 1002.6
20260903034527 82 227 5.0 14.0 0.00 0.00 0.00 18 1002.3
20260903033026 82 207 6.0 11.0 0.00 0.00 0.00 17 1002.4
20260903031526 83 217 6.0 12.0 0.00 0.00 0.00 17 1002.2
20260903030026 83 234 7.0 17.0 0.00 0.00 0.00 17 1002.0
20260903024524 83 233 8.0 13.0 0.00 0.00 0.00 19 1001.9
20260903023023 83 210 5.0 10.0 0.00 0.00 0.00 20 1001.7
20260903021523 84 217 6.0 10.0 0.00 0.00 0.00 20 1001.6
20260903020022 85 212 4.0 12.0 0.00 0.00 0.00 20 1001.4
20260903014521 85 230 6.0 12.0 0.00 0.00 0.00 19 1001.4
20260903013019 86 194 10.0 20.0 0.00 0.00 0.00 19 1001.5
20260903011519 87 213 11.0 18.0 0.00 0.00 0.00 19 1001.6
20260903010018 87 216 14.0 23.0 0.00 0.00 0.00 19 1001.6
20260903004522 88 248 12.0 22.0 0.00 0.00 0.00 20 1001.6
20260903003020 88 261 10.0 20.0 0.00 0.00 0.00 20 1001.6
20260903001519 89 214 13.0 25.0 0.00 0.00 0.00 18 1001.8
20260903000014 89 216 12.0 23.0 0.00 0.00 0.00 19 1001.9
20260902234512 89 242 14.0 27.0 0.00 0.00 0.00 18 1001.8
20260902233011 89 190 11.0 22.0 0.00 0.00 0.00 19 1001.8
20260902231512 89 255 10.0 21.0 0.00 0.00 0.00 22 1002.2
20260902230007 89 223 9.0 23.0 0.00 0.00 0.00 25 1002.4
20260902224505 88 198 9.0 25.0 0.00 0.00 0.00 24 1002.5
20260902223003 88 210 10.0 21.0 0.00 0.00 0.00 26 1002.7
20260902221607 87 205 8.0 14.0 0.00 0.00 0.00 29 1002.7
20260902214604 87 239 11.0 20.0 0.00 0.00 0.00 29 1003.0
20260902213056 88 245 8.0 21.0 0.00 0.00 0.00 30 1003.0
20260902211610 87 244 4.0 18.0 0.00 0.00 0.00 30 1003.2
20260902210115 87 255 8.0 23.0 0.00 0.00 0.00 29 1003.4
20260902204605 87 198 7.0 15.0 0.00 0.00 0.00 30 1003.9
20260902203057 87 206 9.0 20.0 0.00 0.00 0.00 32 1004.1
20260902201522 88 271 8.0 13.0 0.00 0.00 0.00 30 1004.2
20260902200036 87 146 8.0 17.0 0.00 0.00 0.00 32 1004.6
20260902194534 86 232 7.0 13.0 0.00 0.00 0.00 36 1004.9
20260902193028 84 214 8.0 16.0 0.00 0.00 0.00 40 1005.1
20260902191526 84 168 12.0 20.0 0.00 0.00 0.00 39 1005.5
20260902190035 84 171 10.0 20.0 0.00 0.00 0.00 39 1005.8
20260902184525 83 200 7.0 14.0 0.00 0.00 0.00 42 1006.1
20260902183017 80 130 10.0 15.0 0.00 0.00 0.00 46 1006.6
20260902181515 81 107 5.0 14.0 0.00 0.00 0.00 47 1007.0
20260902180011 80 163 6.0 16.0 0.00 0.00 0.00 48 1007.2
20260902174508 78 148 3.0 10.0 0.00 0.00 0.00 51 1007.5
20260902173005 76 145 1.0 9.0 0.00 0.00 0.00 52 1007.8
20260902171504 76 147 3.0 8.0 0.00 0.00 0.00 51 1008.0
20260902170005 76 196 3.0 8.0 0.00 0.00 0.00 53 1008.1
20260902164600 76 186 3.0 10.0 0.00 0.00 0.00 55 1008.0
20260902163056 73 159 4.0 10.0 0.00 0.00 0.00 57 1008.4